1537430400.31,51486,21.88,74628.3,22.13,-12.43,-3.75,0,*74
1537430401.57,51487,21.88,74626.5,22.15,-12.53,-3.67,0,*71
1537430402.81,51488,21.88,74626.3,22.15,-12.61,-3.87,0,*71
1537430404.06,51489,21.88,74626.8,22.15,-12.79,-4.17,0,*77
1537430405.29,51490,21.88,74630.3,22.13,-14.15,-5.03,0,*71
1537430406.5,51491,21.88,74626.0,22.13,-14.69,-5.61,0,*7F
1537430407.73,51492,21.88,74628.3,22.09,-14.61,-5.31,0,*7A
1537430408.95,51493,21.88,74626.5,22.09,-15.15,-5.77,0,*7B
1537430410.24,51494,21.88,74628.3,22.07,-14.51,-5.23,0,*72
1537430411.47,51495,21.88,74630.0,22.05,-14.11,-4.69,0,*7A
1537430412.71,51496,21.88,74626.0,22.05,-12.79,-3.43,0,*7E
1537430413.93,51497,21.88,74624.0,22.05,-12.53,-3.15,0,*74
1537430415.14,51498,21.88,74628.0,22.05,-12.71,-3.31,0,*7D
1537430416.36,51499,21.88,74628.5,22.05,-12.57,-3.31,0,*78
1537430417.56,51500,21.88,74632.8,22.05,-13.23,-4.05,0,*7B
1537430418.8,51501,21.88,74626.5,22.07,-12.93,-3.67,0,*71
1537430420.02,51502,21.88,74626.3,22.07,-12.25,-3.11,0,*7E
1537430421.22,51503,21.88,74626.8,22.09,-12.29,-3.11,0,*7D
1537430422.47,51504,21.88,74630.5,22.07,-12.93,-4.01,0,*73
1537430423.71,51505,21.88,74626.5,22.07,-12.47,-3.43,0,*7A
1537430424.96,51506,21.88,74624.3,22.07,-12.75,-4.05,0,*7D
1537430426.16,51507,21.88,74630.3,22.09,-13.07,-4.49,0,*7E
1537430427.39,51508,21.88,74628.0,22.09,-12.57,-4.13,0,*7A
1537430428.59,51509,21.88,74628.0,22.09,-12.43,-4.13,0,*7E
1537430429.83,51510,21.88,74626.5,22.11,-12.57,-4.49,0,*75
1537430431.05,51511,21.88,74630.8,22.09,-12.61,-4.99,0,*75
1537430432.33,51512,21.88,74628.8,22.11,-12.83,-4.89,0,*72
1537430433.61,51513,21.88,74628.3,22.11,-12.75,-5.07,0,*7D
1537430434.87,51514,21.88,74630.5,22.11,-13.01,-5.39,0,*75
1537430436.12,51515,21.88,74626.5,22.11,-12.43,-5.03,0,*7A
1537430437.32,51516,21.88,74628.0,22.13,-13.73,-6.43,0,*7E
1537430438.53,51517,21.88,74626.3,22.13,-13.11,-5.81,0,*76
1537430439.79,51518,21.88,74624.0,22.13,-12.53,-5.27,0,*72
1537430440.98,51519,21.88,74626.0,22.13,-12.97,-6.01,0,*7C
1537430442.2,51520,21.88,74626.3,22.13,-12.89,-5.93,0,*71
1537430443.41,51521,21.88,74626.8,22.13,-13.01,-6.13,0,*7A
1537430444.65,51522,21.88,74626.8,22.13,-13.01,-6.27,0,*7E
1537430445.9,51523,21.88,74626.8,22.13,-12.57,-5.93,0,*71
1537430447.12,51524,21.88,74626.8,22.13,-12.39,-5.89,0,*75
1537430448.33,51525,21.88,74630.8,22.13,-13.15,-6.63,0,*7C
1537430449.55,51526,21.88,74626.3,22.13,-12.65,-6.13,0,*7E
1537430450.74,51527,21.88,74624.5,22.13,-13.11,-6.55,0,*7F
1537430451.95,51528,21.88,74626.3,22.13,-12.83,-6.55,0,*7A
1537430453.17,51529,21.88,74628.5,22.13,-13.11,-6.97,0,*7F
1537430454.39,51530,21.88,74626.8,22.13,-14.43,-8.25,0,*70
1537430455.61,51531,21.88,74626.5,22.11,-14.29,-8.17,0,*7E
1537430456.83,51532,21.94,74630.8,22.11,-14.33,-8.29,0,*7B
1537430458.09,51533,21.88,74628.0,22.11,-13.79,-7.83,0,*7C
1537430459.35,51534,21.88,74628.5,22.09,-14.01,-8.07,0,*79
1537430460.59,51535,21.94,74630.8,22.09,-15.01,-9.11,0,*7F
1537430461.8,51536,21.88,74630.3,22.05,-14.97,-8.97,0,*71
1537430463.03,51537,21.88,74628.5,22.05,-14.01,-8.17,0,*77
1537430464.23,51538,21.88,74626.8,22.05,-13.55,-7.87,0,*78
1537430465.47,51539,21.94,74630.0,22.05,-12.79,-6.97,0,*76
1537430466.71,51540,21.94,74630.0,22.05,-12.57,-6.93,0,*70
1537430467.97,51541,21.88,74628.5,22.07,-12.11,-6.51,0,*7F
1537430469.19,51542,21.88,74628.0,22.07,-12.25,-6.59,0,*73
1537430470.42,51543,21.94,74630.0,22.07,-12.25,-6.59,0,*72
1537430471.7,51544,21.94,74628.0,22.07,-12.53,-6.93,0,*72
1537430472.94,51545,21.94,74630.3,22.07,-12.47,-7.01,0,*7C
1537430474.19,51546,21.94,74628.3,22.07,-12.93,-7.31,0,*75
1537430475.4,51547,21.94,74626.8,22.09,-12.21,-6.59,0,*7C
1537430476.65,51548,21.94,74628.3,22.11,-12.61,-7.11,0,*73
1537430477.85,51549,21.88,74626.5,22.09,-14.29,-8.71,0,*78
1537430479.07,51550,21.94,74626.8,22.09,-13.55,-7.95,0,*79
1537430480.31,51551,21.88,74624.5,22.07,-13.79,-8.33,0,*7B
1537430481.55,51552,21.94,74628.3,22.05,-12.79,-7.31,0,*76
1537430482.79,51553,21.94,74626.8,22.05,-12.65,-7.05,0,*7D
1537430483.98,51554,21.88,74626.0,22.05,-13.65,-8.17,0,*77
1537430485.22,51555,21.94,74626.5,22.05,-12.79,-7.05,0,*76
1537430486.47,51556,21.94,74626.0,22.07,-12.07,-6.51,0,*7E
1537430487.72,51557,21.88,74624.3,22.07,-13.11,-7.69,0,*73
1537430488.91,51558,21.94,74630.0,22.05,-14.69,-9.05,0,*72
1537430490.13,51559,21.94,74628.5,22.03,-15.53,-9.75,0,*7A
1537430491.35,51560,21.94,74628.3,21.99,-14.33,-8.63,0,*71
1537430492.6,51561,21.94,74628.5,21.95,-14.51,-8.55,0,*7D
1537430493.85,51562,21.94,74626.5,21.95,-13.11,-7.05,0,*77
1537430495.09,51563,21.94,74630.0,21.97,-13.33,-7.57,0,*73
1537430496.38,51564,21.94,74630.0,21.95,-13.83,-7.91,0,*77
1537430497.65,51565,21.94,74628.8,21.95,-11.97,-6.19,0,*70
1537430498.88,51566,21.94,74630.0,21.95,-12.43,-6.51,0,*75
1537430500.13,51567,21.94,74626.8,21.95,-12.65,-6.77,0,*74
1537430501.37,51568,21.94,74630.3,21.95,-11.73,-6.05,0,*7A
1537430502.63,51569,21.94,74630.0,21.99,-12.57,-7.11,0,*76
1537430503.87,51570,21.94,74630.8,21.97,-12.53,-7.05,0,*71
1537430505.1,51571,21.94,74630.3,21.95,-12.97,-7.49,0,*72
1537430506.34,51572,21.94,74630.0,21.97,-13.37,-7.95,0,*79
1537430507.57,51573,21.94,74630.8,21.95,-13.43,-8.41,0,*7F
1537430508.82,51574,21.94,74630.5,21.95,-13.83,-9.05,0,*75
1537430510.06,51575,21.94,74628.3,21.93,-13.51,-9.11,0,*78
1537430511.3,51576,21.94,74624.8,21.91,-12.75,-8.59,0,*73
1537430512.56,51577,21.94,74628.8,21.89,-11.55,-8.11,0,*76
1537430513.76,51578,21.94,74624.5,21.87,-11.23,-8.37,0,*72
1537430514.96,51579,21.94,74628.3,21.87,-10.31,-7.87,0,*75
1537430516.18,51580,21.94,74630.0,21.87,-9.23,-7.35,0,*41
1537430517.38,51581,21.94,74628.8,21.87,-8.67,-7.19,0,*4F
1537430518.59,51582,21.94,74626.8,21.83,-8.41,-7.05,0,*41
1537430519.81,51583,21.94,74624.3,21.83,-7.77,-6.73,0,*4A
1537430521.0,51584,21.94,74628.0,21.83,-7.15,-6.43,0,*4A
1537430522.24,51585,21.94,74626.5,21.81,-7.27,-6.85,0,*42
1537430523.48,51586,21.94,74626.3,21.79,-7.39,-7.31,0,*47
1537430524.7,51587,21.94,74624.3,21.73,-8.67,-8.29,0,*4E
1537430525.96,51588,21.94,74626.5,21.69,-8.03,-7.77,0,*4C
1537430527.2,51589,21.94,74626.3,21.67,-7.27,-6.93,0,*41
1537430528.42,51590,21.94,74624.8,21.63,-4.49,-4.01,0,*4F
1537430529.68,51591,21.94,74630.3,21.61,-3.51,-2.99,0,*45
1537430530.9,51592,21.94,74630.5,21.63,-2.03,-1.33,0,*41
1537430532.1,51593,21.94,74630.0,21.63,-1.29,-0.19,0,*72
1537430533.35,51594,21.94,74630.8,21.63,-2.55,-1.09,0,*4D
1537430534.56,51595,21.94,74626.3,21.63,-3.91,-2.27,0,*4A
1537430535.81,51596,21.94,74628.8,21.61,-5.03,-2.99,0,*43
1537430537.06,51597,21.94,74630.5,21.61,-3.59,-1.55,0,*48
1537430538.28,51598,21.94,74630.3,21.59,-5.89,-2.99,0,*44
1537430539.49,51599,21.94,74628.3,21.59,-3.75,-0.19,0,*7A
1537430540.71,51600,21.94,74628.5,21.59,-5.69,-1.17,0,*4D
1537430541.93,51601,21.94,74626.0,21.61,-6.43,-1.59,0,*46
1537430543.13,51602,21.94,74626.8,21.59,-6.81,-1.25,0,*4B
1537430544.34,51603,21.94,74628.0,21.59,-6.81,-0.85,0,*71
1537430545.54,51604,21.94,74630.5,21.63,-7.19,-0.65,0,*71
1537430546.77,51605,21.94,74628.8,21.63,-7.31,-0.41,0,*7C
1537430547.99,51606,21.94,74630.0,21.67,-8.67,-1.39,0,*49
1537430549.21,51607,21.94,74630.8,21.67,-9.41,-1.79,0,*49
1537430550.43,51608,21.94,74630.3,21.67,-9.93,-2.11,0,*44
1537430551.65,51609,21.94,74630.5,21.71,-10.09,-2.11,0,*79
1537430552.89,51610,21.94,74628.0,21.71,-9.83,-1.83,0,*43
1537430554.09,51611,21.94,74630.0,21.71,-11.41,-3.11,0,*7C
1537430555.35,51612,21.94,74632.0,21.73,-12.75,-4.57,0,*7C
1537430556.6,51613,21.94,74630.3,21.73,-13.43,-5.23,0,*7B
1537430557.82,51614,21.94,74626.8,21.73,-13.15,-4.99,0,*7F
1537430559.07,51615,21.94,74628.8,21.71,-12.83,-4.77,0,*72
1537430560.3,51616,21.94,74632.3,21.71,-13.11,-5.11,0,*7A
1537430561.55,51617,21.94,74628.3,21.71,-11.89,-4.01,0,*78
1537430562.78,51618,21.94,74632.0,21.71,-12.39,-5.03,0,*7C
1537430564.04,51619,21.94,74628.8,21.73,-14.01,-6.47,0,*71
1537430565.32,51620,21.94,74630.3,21.69,-14.47,-6.97,0,*7F
1537430566.55,51621,21.94,74632.8,21.67,-15.25,-7.99,0,*7A
1537430567.8,51622,21.94,74632.5,21.67,-13.83,-6.27,0,*77
1537430569.0,51623,21.94,74628.3,21.67,-13.19,-6.13,0,*72
1537430570.25,51624,21.94,74630.0,21.65,-13.29,-6.01,0,*77
1537430571.52,51625,22.0,74634.8,21.65,-12.83,-5.69,0,*7A
1537430572.75,51626,22.0,74632.5,21.65,-13.73,-6.81,0,*72
1537430573.98,51627,21.94,74630.0,21.67,-13.97,-6.81,0,*7B
1537430575.18,51628,21.94,74628.0,21.67,-13.23,-6.13,0,*70
1537430576.45,51629,21.94,74630.8,21.65,-12.83,-5.81,0,*70
1537430577.72,51630,22.0,74628.8,21.65,-13.87,-7.05,0,*73
1537430578.92,51631,22.0,74632.3,21.67,-13.55,-6.77,0,*7B
1537430580.13,51632,21.94,74624.8,21.63,-13.11,-6.47,0,*7F
1537430581.36,51633,22.0,74632.0,21.63,-14.11,-7.31,0,*79
1537430582.57,51634,21.94,74628.8,21.63,-13.11,-6.47,0,*79
1537430583.83,51635,21.94,74628.3,21.63,-12.75,-6.19,0,*70
1537430585.06,51636,21.94,74628.0,21.63,-12.83,-6.39,0,*78
1537430586.3,51637,21.94,74630.8,21.65,-14.61,-7.99,0,*7E
1537430587.52,51638,21.94,74628.8,21.65,-15.29,-8.59,0,*7F
1537430588.76,51639,22.0,74630.3,21.63,-14.11,-7.61,0,*76
1537430590.04,51640,21.94,74630.8,21.61,-12.57,-6.19,0,*70
1537430591.28,51641,22.0,74630.5,21.63,-12.25,-5.89,0,*7C
1537430592.52,51642,21.94,74628.5,21.63,-11.41,-5.03,0,*7C
1537430593.78,51643,22.0,74628.0,21.67,-11.63,-5.31,0,*78
1537430595.03,51644,22.0,74630.3,21.67,-12.11,-5.89,0,*7A
1537430596.31,51645,21.94,74630.3,21.69,-12.15,-5.85,0,*7D
1537430597.56,51646,21.94,74626.5,21.69,-12.53,-6.05,0,*77
1537430598.79,51647,22.0,74628.5,21.71,-12.71,-6.43,0,*7D
1537430600.07,51648,22.0,74630.3,21.69,-12.53,-6.19,0,*74
1537430601.28,51649,22.0,74628.8,21.71,-12.93,-6.73,0,*7C
1537430602.47,51650,21.94,74626.5,21.71,-13.15,-6.85,0,*72
1537430603.68,51651,22.0,74628.3,21.71,-12.29,-6.13,0,*72
1537430604.91,51652,22.0,74630.3,21.71,-12.43,-6.19,0,*77
1537430606.16,51653,22.0,74630.8,21.75,-12.07,-5.89,0,*78
1537430607.41,51654,22.0,74628.0,21.75,-11.29,-5.11,0,*71
1537430608.65,51655,22.0,74626.8,21.79,-11.23,-5.07,0,*71
1537430609.87,51656,22.0,74630.0,21.79,-12.35,-5.97,0,*7F
1537430611.07,51657,22.0,74630.3,21.79,-12.47,-6.05,0,*73
1537430612.32,51658,22.0,74630.0,21.81,-11.73,-5.39,0,*73
1537430613.53,51659,21.94,74626.0,21.81,-10.53,-4.33,0,*7A
1537430614.78,51660,22.0,74628.3,21.85,-11.73,-5.51,0,*72
1537430616.04,51661,22.0,74628.3,21.83,-13.97,-7.77,0,*7B
1537430617.27,51662,22.0,74626.8,21.83,-13.69,-7.43,0,*7E
1537430618.47,51663,22.0,74630.3,21.83,-13.23,-6.85,0,*7A
1537430619.7,51664,22.0,74624.3,21.83,-12.25,-5.93,0,*7E
1537430620.92,51665,22.0,74628.8,21.83,-12.35,-6.13,0,*75
1537430622.14,51666,22.0,74628.0,21.83,-12.65,-6.35,0,*77
1537430623.41,51667,22.0,74628.8,21.85,-11.85,-5.73,0,*7C
1537430624.66,51668,22.0,74630.8,21.85,-11.15,-5.11,0,*7E
1537430625.89,51669,22.0,74628.0,21.87,-11.01,-4.81,0,*70
1537430627.12,51670,22.0,74626.8,21.89,-12.25,-6.23,0,*79
1537430628.34,51671,22.0,74630.8,21.89,-11.67,-5.43,0,*78
1537430629.56,51672,22.0,74630.0,21.91,-11.19,-4.99,0,*7D
1537430630.77,51673,22.0,74628.8,21.93,-10.97,-4.61,0,*7E
1537430632.0,51674,22.0,74626.0,21.95,-10.57,-4.29,0,*7F
1537430633.19,51675,22.0,74630.3,21.97,-10.01,-3.79,0,*7D
1537430634.44,51676,22.0,74630.8,21.99,-10.75,-4.33,0,*7A
1537430635.66,51677,22.0,74630.3,22.03,-10.49,-4.09,0,*7D
1537430636.91,51678,22.0,74626.8,22.03,-11.15,-4.69,0,*7C
1537430638.17,51679,22.0,74628.8,22.03,-13.37,-6.81,0,*7B
1537430639.45,51680,22.0,74630.0,22.03,-14.51,-7.99,0,*72
1537430640.71,51681,22.0,74630.5,22.03,-12.75,-6.31,0,*70
1537430641.99,51682,22.0,74630.8,21.99,-12.57,-6.19,0,*79
1537430643.27,51683,22.0,74628.5,21.99,-11.63,-5.19,0,*7F
1537430644.52,51684,22.0,74624.8,22.03,-10.63,-4.33,0,*70
1537430645.72,51685,22.0,74624.0,22.05,-10.57,-4.29,0,*7B
1537430646.92,51686,22.0,74630.5,22.09,-10.35,-4.09,0,*72
1537430648.12,51687,22.0,74632.0,22.09,-10.23,-3.95,0,*76
1537430649.34,51688,22.0,74626.0,22.11,-10.23,-3.95,0,*70
1537430650.57,51689,22.0,74628.3,22.15,-10.15,-3.91,0,*74
1537430651.82,51690,22.0,74626.8,22.15,-11.01,-4.77,0,*77
1537430653.06,51691,22.0,74628.8,22.19,-11.11,-4.77,0,*7B
1537430654.27,51692,22.0,74628.8,22.19,-10.53,-4.41,0,*7A
1537430655.53,51693,22.0,74630.0,22.19,-10.67,-4.61,0,*7E
1537430656.75,51694,22.0,74626.8,22.21,-10.35,-4.13,0,*70
1537430657.98,51695,22.0,74628.5,22.25,-10.57,-4.45,0,*72
1537430659.18,51696,22.0,74628.3,22.27,-10.27,-4.09,0,*7C
1537430660.37,51697,22.0,74628.5,22.31,-10.23,-4.09,0,*7E
1537430661.6,51698,22.0,74624.0,22.31,-10.63,-4.49,0,*71
1537430662.82,51699,22.0,74626.8,22.31,-11.19,-5.11,0,*70
1537430664.07,51700,22.0,74630.8,22.33,-10.89,-4.85,0,*77
1537430665.32,51701,22.0,74628.0,22.33,-11.63,-5.55,0,*7F
1537430666.58,51702,22.0,74630.8,22.33,-11.01,-4.89,0,*78
1537430667.8,51703,22.0,74630.8,22.33,-10.45,-4.33,0,*79
1537430669.04,51704,22.0,74628.0,22.37,-11.55,-5.43,0,*7C
1537430670.27,51705,22.0,74628.8,22.35,-11.11,-4.93,0,*73
1537430671.54,51706,22.0,74628.8,22.37,-11.33,-5.07,0,*7E
1537430672.79,51707,22.0,74630.3,22.37,-11.11,-4.89,0,*78
1537430674.04,51708,22.0,74630.0,22.37,-12.43,-5.85,0,*7E
1537430675.26,51709,22.0,74630.0,22.37,-12.93,-6.73,0,*78
1537430676.48,51710,22.0,74630.3,22.39,-12.15,-6.01,0,*75
1537430677.73,51711,22.0,74630.5,22.39,-11.85,-5.81,0,*75
1537430678.97,51712,22.0,74626.8,22.37,-12.15,-5.97,0,*75
1537430680.17,51713,22.0,74632.0,22.35,-12.47,-6.35,0,*7A
1537430681.45,51714,22.0,74628.3,22.37,-11.93,-5.73,0,*74
1537430682.69,51715,22.0,74628.3,22.37,-11.55,-5.39,0,*71
1537430683.91,51716,22.0,74632.3,22.39,-12.03,-5.81,0,*7F
1537430685.16,51717,22.0,74628.0,22.41,-10.75,-4.45,0,*7B
1537430686.44,51718,22.0,74630.3,22.41,-11.63,-5.27,0,*77
1537430687.67,51719,22.0,74630.5,22.41,-13.11,-6.55,0,*77
1537430688.91,51720,22.0,74628.8,22.39,-13.87,-7.27,0,*79
1537430690.17,51721,22.0,74626.8,22.39,-14.47,-7.73,0,*72
1537430691.42,51722,22.0,74630.8,22.37,-13.79,-7.15,0,*75
1537430692.64,51723,22.0,74630.0,22.35,-12.79,-5.97,0,*7F
1537430693.84,51724,22.0,74630.0,22.35,-12.47,-5.51,0,*7F
1537430695.07,51725,22.0,74630.3,22.35,-11.29,-4.29,0,*7B
1537430696.31,51726,22.06,74632.0,22.37,-11.51,-4.53,0,*78
1537430697.59,51727,22.0,74630.3,22.37,-11.93,-4.93,0,*7B
1537430698.86,51728,22.0,74630.0,22.37,-11.07,-4.01,0,*72
1537430700.12,51729,22.0,74630.0,22.41,-11.29,-4.13,0,*7D
1537430701.34,51730,22.06,74628.5,22.41,-11.19,-4.13,0,*76
1537430702.61,51731,22.0,74630.0,22.41,-11.89,-4.77,0,*7C
1537430703.83,51732,22.0,74630.8,22.41,-13.15,-6.01,0,*7B
1537430705.08,51733,22.0,74628.8,22.41,-11.59,-4.45,0,*72
1537430706.29,51734,22.0,74628.0,22.43,-10.85,-3.67,0,*70
1537430707.49,51735,22.0,74628.5,22.43,-10.97,-4.05,0,*71
1537430708.74,51736,22.0,74628.3,22.47,-10.71,-3.63,0,*79
1537430709.96,51737,22.0,74628.0,22.47,-11.51,-4.29,0,*72
1537430711.24,51738,22.0,74630.0,22.49,-12.11,-4.89,0,*7E
1537430712.46,51739,22.0,74628.3,22.49,-10.89,-3.95,0,*76
1537430713.66,51740,22.0,74630.5,22.51,-11.45,-4.45,0,*7A
1537430714.88,51741,22.06,74628.5,22.51,-11.07,-4.09,0,*75
1537430716.08,51742,22.0,74630.3,22.51,-10.31,-3.31,0,*7E
1537430717.28,51743,22.06,74630.0,22.55,-10.53,-3.47,0,*7E
1537430718.47,51744,22.06,74630.3,22.55,-9.89,-2.79,0,*4A
1537430719.69,51745,22.06,74628.8,22.57,-10.23,-3.31,0,*7C
1537430720.9,51746,22.0,74628.8,22.61,-9.93,-3.07,0,*4C
1537430722.12,51747,22.06,74628.3,22.61,-11.15,-4.17,0,*7C
1537430723.39,51748,22.06,74628.0,22.61,-11.97,-4.93,0,*75
1537430724.67,51749,22.06,74628.3,22.61,-12.07,-4.85,0,*79
1537430725.92,51750,22.0,74624.0,22.61,-13.11,-5.85,0,*76
1537430727.17,51751,22.0,74624.5,22.59,-13.33,-6.19,0,*7A
1537430728.42,51752,22.06,74630.8,22.57,-11.97,-4.53,0,*77
1537430729.67,51753,22.0,74628.0,22.59,-12.71,-5.19,0,*7C
1537430730.93,51754,22.0,74626.8,22.57,-13.55,-5.93,0,*70
1537430732.18,51755,22.06,74628.8,22.59,-12.71,-5.19,0,*7A
1537430733.43,51756,22.0,74624.3,22.55,-12.65,-5.07,0,*7F
1537430734.65,51757,22.06,74630.0,22.55,-11.37,-3.75,0,*79
1537430735.9,51758,22.06,74630.5,22.57,-11.23,-3.59,0,*7F
1537430737.15,51759,22.06,74630.5,22.57,-11.77,-3.83,0,*78
1537430738.39,51760,22.0,74626.3,22.59,-11.33,-3.47,0,*74
1537430739.64,51761,22.06,74630.3,22.59,-13.01,-5.11,0,*73
1537430740.9,51762,22.06,74628.8,22.57,-12.15,-4.21,0,*78
1537430742.17,51763,22.06,74630.8,22.57,-11.59,-3.63,0,*73
1537430743.37,51764,22.06,74628.5,22.59,-11.01,-3.35,0,*74
1537430744.62,51765,22.06,74632.0,22.61,-11.01,-3.43,0,*7F
1537430745.86,51766,22.06,74626.0,22.61,-11.81,-4.09,0,*7D
1537430747.08,51767,22.06,74630.0,22.63,-11.81,-4.29,0,*7C
1537430748.3,51768,22.06,74628.8,22.63,-12.39,-4.81,0,*71
1537430749.48,51769,22.06,74630.5,22.63,-10.57,-3.23,0,*75
1537430750.73,51770,22.06,74628.8,22.65,-10.41,-3.03,0,*7E
1537430751.96,51771,22.06,74628.3,22.65,-11.41,-4.33,0,*7A
1537430753.19,51772,22.06,74630.3,22.65,-10.97,-3.91,0,*7C
1537430754.41,51773,22.06,74630.8,22.67,-10.23,-3.59,0,*74
1537430755.64,51774,22.06,74630.3,22.71,-10.71,-4.33,0,*78
1537430756.84,51775,22.06,74630.3,22.71,-11.01,-4.45,0,*7E
1537430758.07,51776,22.06,74630.0,22.67,-11.45,-4.73,0,*7F
1537430759.29,51777,22.06,74630.5,22.67,-11.51,-4.99,0,*7F
1537430760.48,51778,22.06,74628.3,22.67,-9.27,-3.07,0,*48
1537430761.68,51779,22.06,74628.3,22.71,-8.97,-2.95,0,*4E
1537430762.95,51780,22.06,74628.0,22.73,-9.49,-3.59,0,*49
1537430764.16,51781,22.06,74626.8,22.73,-9.89,-4.25,0,*48
1537430765.41,51782,22.06,74630.0,22.73,-8.71,-3.43,0,*4A
1537430766.64,51783,22.06,74630.3,22.77,-7.95,-3.23,0,*4C
1537430767.89,51784,22.06,74628.3,22.77,-8.17,-4.01,0,*49
1537430769.11,51785,22.06,74630.3,22.75,-8.07,-5.35,0,*4D
1537430770.36,51786,22.06,74628.0,22.75,-6.23,-4.69,0,*4E
1537430771.56,51787,22.06,74626.5,22.71,-4.81,-4.45,0,*4F
1537430772.76,51788,22.06,74628.3,22.71,-3.07,-3.27,0,*4A
1537430773.97,51789,22.06,74628.5,22.67,0.67,0.47,0,*4C
1537430775.2,51790,22.06,74630.0,22.65,2.01,2.31,0,*47
1537430776.39,51791,22.06,74630.3,22.67,3.25,3.89,0,*41
1537430777.63,51792,22.06,74628.8,22.67,3.07,4.67,0,*45
1537430778.9,51793,22.06,74628.8,22.73,2.13,4.63,0,*41
1537430780.13,51794,22.06,74626.5,22.73,-0.07,3.71,0,*68
1537430781.33,51795,22.06,74628.0,22.73,-0.45,4.27,0,*5B
1537430782.54,51796,22.06,74628.5,22.77,-1.21,4.19,0,*62
1537430783.76,51797,22.06,74628.3,22.77,-3.87,1.75,0,*62
1537430784.97,51798,22.06,74632.0,22.77,-5.43,-0.07,0,*4A
1537430786.16,51799,22.06,74628.8,22.79,-7.15,-1.75,0,*40
1537430787.37,51800,22.06,74630.0,22.75,-7.39,-2.39,0,*46
1537430788.57,51801,22.06,74628.0,22.75,-6.13,-1.63,0,*42
1537430789.79,51802,22.06,74628.0,22.75,-6.09,-2.11,0,*4C
1537430791.03,51803,22.06,74630.5,22.75,-5.73,-2.47,0,*40
1537430792.23,51804,22.06,74628.0,22.75,-4.65,-1.79,0,*4F
1537430793.45,51805,22.06,74628.8,22.75,-3.35,-0.89,0,*72
1537430794.64,51806,22.06,74628.5,22.75,-4.29,-2.23,0,*49
1537430795.88,51807,22.06,74628.8,22.73,-2.43,-0.89,0,*76
1537430797.09,51808,22.06,74630.3,22.73,-1.75,-0.69,0,*71
1537430798.3,51809,22.06,74630.5,22.73,-0.45,-0.03,0,*7E
1537430799.48,51810,22.06,74628.5,22.71,-0.29,-0.03,0,*7E
1537430800.73,51811,22.13,74632.8,22.73,1.43,1.89,0,*43
1537430801.94,51812,22.06,74626.8,22.71,1.37,1.75,0,*42
1537430803.18,51813,22.06,74626.3,22.73,2.35,3.11,0,*40
1537430804.42,51814,22.06,74624.8,22.75,1.33,3.33,0,*44
1537430805.65,51815,22.06,74628.0,22.77,2.89,5.63,0,*46
1537430806.86,51816,22.13,74628.8,22.79,1.33,5.49,0,*41
1537430808.05,51817,22.06,74626.5,22.83,-0.19,5.19,0,*54
1537430809.3,51818,22.13,74630.3,22.87,-2.47,3.89,0,*69
1537430810.52,51819,22.06,74628.5,22.93,-3.95,3.07,0,*65
1537430811.76,51820,22.06,74626.3,22.95,-5.73,1.47,0,*61
1537430812.97,51821,22.13,74630.0,22.97,-6.73,0.37,0,*57
1537430814.21,51822,22.13,74628.5,22.99,-7.27,-0.45,0,*72
1537430815.46,51823,22.06,74624.5,22.99,-7.39,-0.93,0,*77
1537430816.71,51824,22.06,74630.3,22.99,-8.45,-2.03,0,*4F
1537430817.91,51825,22.13,74632.5,22.97,-10.15,-3.75,0,*7C
1537430819.13,51826,22.06,74630.8,22.97,-10.79,-4.49,0,*7D
1537430820.39,51827,22.13,74628.3,22.97,-11.07,-5.15,0,*7C
1537430821.61,51828,22.13,74628.8,22.97,-9.05,-3.63,0,*4F
1537430822.84,51829,22.13,74628.8,22.95,-7.77,-3.07,0,*45
1537430824.04,51830,22.13,74628.8,22.97,-7.53,-2.95,0,*43
1537430825.25,51831,22.13,74630.0,22.97,-7.31,-2.87,0,*45
1537430826.44,51832,22.13,74630.8,23.01,-7.15,-3.07,0,*47
1537430827.64,51833,22.13,74628.5,22.97,-7.83,-3.35,0,*46
1537430828.83,51834,22.06,74628.8,22.97,-7.83,-2.99,0,*46
1537430830.08,51835,22.13,74628.8,22.99,-7.87,-2.55,0,*4D
1537430831.3,51836,22.13,74626.8,22.99,-9.01,-2.83,0,*45
1537430832.52,51837,22.13,74628.0,22.99,-9.67,-3.31,0,*4C
1537430833.73,51838,22.06,74626.8,23.01,-9.61,-3.27,0,*42
1537430834.95,51839,22.13,74632.8,23.03,-9.89,-3.51,0,*46
1537430836.2,51840,22.06,74624.5,23.03,-10.71,-4.65,0,*77
1537430837.47,51841,22.06,74624.5,23.07,-12.35,-6.23,0,*70
1537430838.7,51842,22.13,74628.0,23.05,-13.01,-6.73,0,*72
1537430839.93,51843,22.13,74630.5,23.07,-11.45,-5.51,0,*70
1537430841.15,51844,22.13,74626.5,23.07,-12.25,-6.35,0,*73
1537430842.43,51845,22.13,74632.5,23.07,-13.01,-7.35,0,*74
1537430843.63,51846,22.06,74626.0,23.05,-12.47,-6.89,0,*70
1537430844.88,51847,22.13,74628.8,23.07,-12.15,-6.59,0,*79
1537430846.12,51848,22.13,74628.5,23.07,-12.43,-6.93,0,*73
1537430847.35,51849,22.13,74628.0,23.05,-11.45,-6.19,0,*77
1537430848.58,51850,22.13,74628.5,23.05,-11.45,-6.63,0,*72
1537430849.8,51851,22.13,74630.0,23.07,-11.19,-6.01,0,*7C
1537430851.03,51852,22.13,74628.3,23.07,-12.29,-7.11,0,*7F
1537430852.25,51853,22.13,74628.8,23.09,-12.11,-6.89,0,*7B
1537430853.47,51854,22.13,74630.3,23.09,-11.97,-6.77,0,*70
1537430854.72,51855,22.13,74630.3,23.09,-13.29,-8.11,0,*78
1537430855.94,51856,22.13,74630.3,23.07,-13.73,-8.41,0,*7F
1537430857.19,51857,22.13,74630.8,23.07,-13.11,-7.61,0,*77
1537430858.4,51858,22.13,74630.5,23.05,-13.19,-7.83,0,*7E
1537430859.63,51859,22.13,74628.0,23.05,-14.01,-8.93,0,*7F
1537430860.83,51860,22.13,74630.0,23.05,-13.51,-9.05,0,*79
1537430862.08,51861,22.13,74630.8,23.03,-12.47,-7.99,0,*73
1537430863.32,51862,22.13,74630.0,23.03,-12.89,-8.07,0,*7A
1537430864.56,51863,22.13,74628.5,23.01,-12.83,-8.03,0,*77
1537430865.81,51864,22.13,74628.5,23.03,-13.01,-8.21,0,*79
1537430867.02,51865,22.13,74626.8,23.03,-13.93,-9.19,0,*79
1537430868.21,51866,22.13,74630.5,23.01,-13.19,-8.55,0,*73
1537430869.44,51867,22.13,74628.5,23.01,-15.39,-10.57,0,*4D
1537430870.69,51868,22.13,74630.8,22.99,-14.83,-9.97,0,*76
1537430871.97,51869,22.13,74628.3,22.99,-13.97,-9.15,0,*7F
1537430873.17,51870,22.13,74628.3,22.97,-13.73,-9.19,0,*7F
1537430874.42,51871,22.13,74630.5,22.95,-15.95,-11.37,0,*47
1537430875.64,51872,22.13,74628.8,22.93,-18.01,-13.43,0,*43
1537430876.87,51873,22.13,74630.8,22.87,-18.11,-13.73,0,*45
1537430878.12,51874,22.13,74632.0,22.79,-16.17,-11.85,0,*40
1537430879.32,51875,22.13,74628.3,22.79,-14.65,-10.49,0,*47
1537430880.57,51876,22.13,74630.3,22.77,-13.43,-9.45,0,*7D
1537430881.79,51877,22.13,74630.5,22.77,-12.89,-8.85,0,*76
1537430883.0,51878,22.13,74630.3,22.75,-14.37,-10.53,0,*4A
1537430884.26,51879,22.13,74632.3,22.75,-15.39,-11.67,0,*42
1537430885.48,51880,22.13,74630.5,22.75,-13.11,-9.57,0,*72
1537430886.71,51881,22.13,74632.0,22.71,-13.87,-10.31,0,*40
1537430887.94,51882,22.13,74628.0,22.73,-15.99,-12.39,0,*42
1537430889.17,51883,22.13,74628.5,22.65,-16.41,-12.93,0,*42
1537430890.42,51884,22.13,74630.8,22.61,-16.93,-13.79,0,*4B
1537430891.66,51885,22.13,74628.3,22.57,-16.31,-13.07,0,*4E
1537430892.89,51886,22.13,74628.5,22.51,-16.17,-13.15,0,*4C
1537430894.11,51887,22.13,74630.3,22.49,-16.93,-14.19,0,*43
1537430895.36,51888,22.13,74630.0,22.41,-16.23,-13.69,0,*4F
1537430896.56,51889,22.13,74628.3,22.39,-16.59,-14.33,0,*44
1537430897.79,51890,22.13,74630.5,22.35,-17.11,-15.11,0,*4C
1537430899.04,51891,22.13,74630.3,22.29,-17.11,-15.29,0,*4B
1537430900.33,51892,22.13,74628.8,22.25,-16.13,-14.51,0,*49
1537430901.58,51893,22.13,74628.5,22.19,-16.41,-15.21,0,*46
1537430902.78,51894,22.13,74626.0,22.13,-15.71,-14.61,0,*4E
1537430904.01,51895,22.13,74626.0,22.09,-15.75,-14.93,0,*4D